| time (UTC) | temp F | wind direction | speed knots | gust knots | rain 1hr in | rain 24hr in | rain mn in | humidity % | barometer mb |
| 20260507231843 | 60 | 134 | 1.7 | 2.6 | 0.00 | 0.01 | 0.00 | 81 | 1013.9 |
| 20260507200843 | 62 | 116 | 2.6 | 4.3 | 0.00 | 0.01 | 0.01 | 76 | 1014.1 |
| 20260507195843 | 62 | 100 | 2.6 | 4.3 | 0.00 | 0.01 | 0.01 | 77 | 1014.0 |
| 20260507163842 | 67 | 95 | 2.6 | 5.2 | 0.00 | 0.01 | 0.01 | 65 | 1012.7 |
| 20260507162842 | 67 | 154 | 0.9 | 5.2 | 0.00 | 0.01 | 0.01 | 66 | 1012.7 |
| 20260507161902 | 67 | 112 | 2.6 | 5.2 | 0.00 | 0.01 | 0.01 | 66 | 1012.6 |
| 20260507160842 | 68 | 96 | 2.6 | 4.3 | 0.00 | 0.01 | 0.01 | 65 | 1012.6 |
| 20260507155902 | 68 | 120 | 1.7 | 4.3 | 0.00 | 0.01 | 0.01 | 65 | 1012.6 |
| 20260507154842 | 68 | 107 | 1.7 | 4.3 | 0.00 | 0.01 | 0.01 | 66 | 1012.6 |
| 20260507153902 | 68 | 135 | 0.0 | 8.7 | 0.00 | 0.01 | 0.01 | 67 | 1012.5 |
| 20260507152842 | 67 | 102 | 1.7 | 8.7 | 0.00 | 0.01 | 0.01 | 67 | 1012.5 |
| 20260507151841 | 67 | 99 | 4.3 | 8.7 | 0.00 | 0.01 | 0.01 | 67 | 1012.8 |
| 20260507150842 | 67 | 111 | 0.9 | 7.0 | 0.00 | 0.01 | 0.01 | 68 | 1012.6 |
| 20260507145841 | 67 | 99 | 2.6 | 7.0 | 0.00 | 0.01 | 0.01 | 69 | 1012.5 |
| 20260507144841 | 68 | 112 | 0.9 | 5.2 | 0.00 | 0.01 | 0.01 | 70 | 1012.6 |
| 20260507143841 | 67 | 103 | 1.7 | 5.2 | 0.00 | 0.01 | 0.01 | 72 | 1012.8 |
| 20260507142841 | 67 | 118 | 2.6 | 5.2 | 0.00 | 0.01 | 0.01 | 72 | 1012.7 |
| 20260507141841 | 67 | 122 | 2.6 | 4.3 | 0.00 | 0.01 | 0.01 | 74 | 1012.8 |
| 20260507140841 | 67 | 99 | 2.6 | 8.7 | 0.00 | 0.01 | 0.01 | 75 | 1012.7 |
| 20260507135841 | 68 | 115 | 1.7 | 8.7 | 0.00 | 0.01 | 0.01 | 72 | 1012.7 |
| 20260507134841 | 68 | 86 | 1.7 | 6.1 | 0.00 | 0.01 | 0.01 | 72 | 1012.7 |
| 20260507133841 | 68 | 101 | 1.7 | 7.8 | 0.00 | 0.01 | 0.01 | 71 | 1012.8 |
| 20260507132841 | 68 | 107 | 2.6 | 5.2 | 0.00 | 0.01 | 0.01 | 72 | 1012.7 |
| 20260507131841 | 67 | 79 | 1.7 | 5.2 | 0.00 | 0.01 | 0.01 | 75 | 1012.8 |
| 20260507130841 | 67 | 91 | 1.7 | 5.2 | 0.00 | 0.01 | 0.01 | 75 | 1012.9 |
| 20260507094840 | 69 | 272 | 2.6 | 7.8 | 0.00 | 0.01 | 0.01 | 54 | 1013.4 |
| 20260507093840 | 69 | 314 | 0.9 | 6.1 | 0.00 | 0.01 | 0.01 | 58 | 1013.4 |
| 20260507092840 | 69 | 314 | 2.6 | 5.2 | 0.00 | 0.01 | 0.01 | 60 | 1013.4 |
| 20260507091840 | 68 | 283 | 0.9 | 5.2 | 0.00 | 0.01 | 0.01 | 61 | 1013.5 |
| 20260507090840 | 67 | 249 | 0.0 | 7.0 | 0.00 | 0.01 | 0.01 | 62 | 1013.5 |
| 20260507085840 | 68 | 277 | 5.2 | 7.0 | 0.00 | 0.01 | 0.01 | 66 | 1013.5 |
| 20260507084840 | 67 | 274 | 1.7 | 7.0 | 0.00 | 0.01 | 0.01 | 64 | 1013.5 |
| 20260507083840 | 67 | 326 | 2.6 | 6.1 | 0.00 | 0.01 | 0.01 | 66 | 1013.5 |
| 20260507082900 | 66 | 288 | 0.9 | 6.1 | 0.00 | 0.01 | 0.01 | 66 | 1013.5 |
| 20260507081840 | 66 | 303 | 1.7 | 6.1 | 0.00 | 0.01 | 0.01 | 66 | 1013.4 |
| 20260507080840 | 66 | 305 | 0.9 | 5.2 | 0.00 | 0.01 | 0.01 | 67 | 1013.2 |
| 20260507075840 | 66 | 316 | 1.7 | 2.6 | 0.00 | 0.01 | 0.01 | 70 | 1013.1 |
| 20260507074840 | 65 | 316 | 1.7 | 2.6 | 0.00 | 0.01 | 0.01 | 74 | 1013.1 |
| 20260507073840 | 64 | 318 | 0.9 | 4.3 | 0.00 | 0.01 | 0.01 | 75 | 1013.3 |
| 20260507072840 | 64 | 318 | 1.7 | 4.3 | 0.00 | 0.01 | 0.01 | 77 | 1013.3 |
| 20260507071840 | 64 | 319 | 0.0 | 4.3 | 0.00 | 0.01 | 0.01 | 78 | 1013.4 |
| 20260507070840 | 64 | 318 | 0.9 | 4.3 | 0.00 | 0.01 | 0.01 | 77 | 1013.3 |
| 20260507065840 | 64 | 270 | 4.3 | 4.3 | 0.00 | 0.01 | 0.01 | 78 | 1013.1 |
| 20260507064839 | 63 | 249 | 1.7 | 2.6 | 0.00 | 0.01 | 0.01 | 78 | 1013.1 |
| 20260507063839 | 62 | 270 | 2.6 | 6.1 | 0.00 | 0.01 | 0.01 | 79 | 1013.1 |
| 20260507062840 | 62 | 284 | 2.6 | 6.1 | 0.00 | 0.01 | 0.01 | 80 | 1013.0 |
| 20260507061840 | 61 | 274 | 5.2 | 6.1 | 0.00 | 0.01 | 0.01 | 82 | 1013.0 |
| 20260507030839 | 61 | 312 | 0.9 | 2.6 | 0.00 | 0.01 | 0.00 | 76 | 1012.0 |
| 20260507025839 | 62 | 298 | 0.0 | 2.6 | 0.00 | 0.01 | 0.00 | 74 | 1011.8 |
| 20260507024839 | 62 | 298 | 1.7 | 2.6 | 0.00 | 0.01 | 0.00 | 73 | 1011.7 |
| 20260507023839 | 62 | 284 | 0.0 | 6.1 | 0.00 | 0.01 | 0.00 | 73 | 1011.6 |
| 20260507022839 | 61 | 280 | 2.6 | 6.1 | 0.00 | 0.01 | 0.00 | 75 | 1011.6 |
| 20260507021839 | 61 | 17 | 1.7 | 6.1 | 0.00 | 0.01 | 0.00 | 75 | 1011.4 |
| 20260507020859 | 62 | 14 | 1.7 | 7.8 | 0.00 | 0.01 | 0.00 | 75 | 1011.6 |
| 20260507015839 | 62 | 299 | 0.0 | 7.8 | 0.00 | 0.01 | 0.00 | 74 | 1011.4 |